TimePST,TemperatureF,Dew PointF,Humidity,Sea Level PressureIn,VisibilityMPH,Wind Direction,Wind SpeedMPH,Gust SpeedMPH,PrecipitationIn,Events,Conditions,WindDirDegrees,DateUTC
12:53 AM,30.0,25.0,82,30.25,10.0,Calm,Calm,-,N/A,,Clear,0,2013-02-16 08:53:00
1:53 AM,30.0,25.0,82,30.22,10.0,East,3.5,-,N/A,,Clear,90,2013-02-16 09:53:00
2:53 AM,28.0,23.0,81,30.21,7.0,NE,3.5,-,N/A,,Clear,40,2013-02-16 10:53:00
3:53 AM,28.0,23.0,81,30.19,7.0,Calm,Calm,-,N/A,,Clear,0,2013-02-16 11:53:00
4:53 AM,26.1,21.9,84,30.17,7.0,Calm,Calm,-,N/A,,Clear,0,2013-02-16 12:53:00
5:53 AM,26.1,21.0,81,30.17,6.0,North,3.5,-,N/A,,Haze,360,2013-02-16 13:53:00
6:42 AM,26.6,21.2,80,30.11,3.0,ESE,3.5,-,N/A,,Haze,120,2013-02-16 14:42:00
6:50 AM,26.6,21.2,80,30.11,6.0,SE,3.5,-,N/A,,Haze,130,2013-02-16 14:50:00
6:53 AM,27.0,21.9,81,30.15,4.0,East,4.6,-,N/A,,Haze,90,2013-02-16 14:53:00
6:55 AM,26.6,23.0,86,30.11,1.5,Calm,Calm,-,N/A,,Mostly Cloudy,0,2013-02-16 14:55:00
6:57 AM,28.4,23.0,80,30.11,0.8,Calm,Calm,-,N/A,,Haze,0,2013-02-16 14:57:00
7:53 AM,30.0,27.0,88,30.17,0.2,Calm,Calm,-,N/A,Fog,Light Freezing Fog,0,2013-02-16 15:53:00
8:24 AM,32.0,28.4,87,30.11,1.0,Calm,Calm,-,N/A,,Overcast,0,2013-02-16 16:24:00
8:29 AM,32.0,28.4,87,30.11,1.2,Calm,Calm,-,N/A,,Overcast,0,2013-02-16 16:29:00
8:34 AM,32.0,28.4,87,30.11,0.8,Calm,Calm,-,N/A,,Overcast,0,2013-02-16 16:34:00
8:53 AM,32.0,28.9,88,30.16,0.2,Calm,Calm,-,N/A,Fog,Fog,0,2013-02-16 16:53:00
9:53 AM,35.1,30.9,85,30.14,0.5,Calm,Calm,-,N/A,Fog,Fog,0,2013-02-16 17:53:00
10:01 AM,35.6,30.2,81,30.09,1.0,ESE,3.5,-,N/A,,Overcast,110,2013-02-16 18:01:00
10:08 AM,35.6,30.2,81,30.09,2.0,Calm,Calm,-,N/A,,Overcast,0,2013-02-16 18:08:00
10:25 AM,35.6,30.2,81,30.09,4.0,Calm,Calm,-,N/A,,Haze,0,2013-02-16 18:25:00
10:41 AM,37.4,32.0,81,30.08,6.0,Calm,Calm,-,N/A,,Haze,0,2013-02-16 18:41:00
10:53 AM,37.9,32.0,79,30.11,9.0,SW,3.5,-,N/A,,Clear,220,2013-02-16 18:53:00
11:53 AM,48.0,35.1,61,30.08,10.0,SSW,8.1,-,N/A,,Clear,210,2013-02-16 19:53:00
12:53 PM,53.1,32.0,45,30.05,10.0,NW,23.0,32.2,N/A,,Mostly Cloudy,310,2013-02-16 20:53:00
1:53 PM,52.0,33.1,49,30.04,10.0,NW,23.0,29.9,N/A,,Scattered Clouds,310,2013-02-16 21:53:00
2:53 PM,48.0,33.1,56,30.06,10.0,NW,24.2,36.8,N/A,,Partly Cloudy,310,2013-02-16 22:53:00
3:53 PM,48.0,30.0,50,30.05,10.0,NW,26.5,-,N/A,,Clear,320,2013-02-16 23:53:00
4:53 PM,44.1,30.0,58,30.06,10.0,NNW,11.5,-,N/A,,Clear,330,2013-02-17 00:53:00
5:53 PM,39.9,28.9,65,30.05,10.0,NW,15.0,-,N/A,,Clear,310,2013-02-17 01:53:00
6:53 PM,39.0,28.9,67,30.05,10.0,NW,19.6,-,N/A,,Clear,320,2013-02-17 02:53:00
7:53 PM,37.9,28.9,70,30.07,10.0,NW,15.0,-,N/A,,Clear,320,2013-02-17 03:53:00
8:53 PM,37.9,30.0,73,30.07,10.0,NW,18.4,24.2,N/A,,Clear,320,2013-02-17 04:53:00
9:53 PM,37.9,28.9,70,30.06,10.0,NW,18.4,29.9,N/A,,Clear,310,2013-02-17 05:53:00
10:53 PM,37.9,27.0,65,30.04,10.0,NW,21.9,35.7,N/A,,Clear,310,2013-02-17 06:53:00
11:53 PM,37.0,27.0,67,30.06,10.0,NW,11.5,-,N/A,,Clear,320,2013-02-17 07:53:00